Previsão horária em Abramiha

Hoje, 9 Maio, Domingo

Tempo Temperatura Precipitação Vento Pressão Humidade
00:00 +1°C° 0 mm 5 m/s 734 mmHg 80%
01:00 +1°C° 0 mm 5 m/s 734 mmHg 80%
02:00 +1°C° 0 mm 5 m/s 735 mmHg 81%
03:00 +1°C° 0 mm 5 m/s 735 mmHg 83%
04:00 0°C° 0 mm 5 m/s 736 mmHg 85%
05:00 0°C° 0 mm 5 m/s 736 mmHg 88%
06:00 +1°C° 0 mm 6 m/s 737 mmHg 82%
07:00 +1°C° 0 mm 6 m/s 737 mmHg 77%
08:00 +2°C° 0 mm 6 m/s 738 mmHg 71%
09:00 +4°C° 0 mm 6 m/s 738 mmHg 64%
10:00 +5°C° 0 mm 6 m/s 739 mmHg 57%
11:00 +8°C° 0 mm 6 m/s 739 mmHg 49%
12:00 +8°C° 0 mm 6 m/s 740 mmHg 46%
13:00 +9°C° 0 mm 6 m/s 740 mmHg 42%
14:00 +10°C° 0 mm 6 m/s 740 mmHg 39%
15:00 +10°C° 0 mm 5 m/s 741 mmHg 42%
16:00 +10°C° 0 mm 5 m/s 741 mmHg 45%
17:00 +9°C° 0 mm 5 m/s 742 mmHg 48%
18:00 +7°C° 0 mm 4 m/s 742 mmHg 53%
19:00 +7°C° 0 mm 3 m/s 743 mmHg 59%
20:00 +4°C° 0 mm 3 m/s 744 mmHg 65%
21:00 +4°C° 0 mm 2 m/s 744 mmHg 66%
22:00 +3°C° 0 mm 2 m/s 745 mmHg 68%
23:00 +3°C° 0 mm 2 m/s 745 mmHg 69%

Amanhã, 10 Maio, Segunda-feira

Tempo Temperatura Precipitação Vento Pressão Humidade
00:00 +2°C° 0 mm 2 m/s 746 mmHg 69%
01:00 +2°C° 0 mm 2 m/s 746 mmHg 69%
02:00 +3°C° 0 mm 1 m/s 747 mmHg 69%
03:00 +3°C° 0 mm 1 m/s 747 mmHg 69%
04:00 +3°C° 0 mm 1 m/s 747 mmHg 69%
05:00 +3°C° 0 mm 0 m/s 748 mmHg 69%
06:00 +5°C° 0 mm 0 m/s 748 mmHg 63%
07:00 +7°C° 0 mm 0 m/s 748 mmHg 57%
08:00 +10°C° 0 mm 1 m/s 749 mmHg 51%
09:00 +11°C° 0 mm 1 m/s 749 mmHg 48%
10:00 +13°C° 0 mm 1 m/s 749 mmHg 44%
11:00 +14°C° 0 mm 1 m/s 749 mmHg 41%
12:00 +14°C° 0 mm 1 m/s 749 mmHg 40%
13:00 +15°C° 0 mm 1 m/s 748 mmHg 39%
14:00 +15°C° 0 mm 1 m/s 748 mmHg 39%
15:00 +15°C° 0 mm 1 m/s 748 mmHg 41%
16:00 +15°C° 0 mm 1 m/s 748 mmHg 43%
17:00 +15°C° 0 mm 1 m/s 748 mmHg 46%
18:00 +13°C° 0 mm 1 m/s 748 mmHg 52%
19:00 +11°C° 0 mm 1 m/s 749 mmHg 58%
20:00 +8°C° 0 mm 2 m/s 749 mmHg 64%
21:00 +8°C° 0 mm 2 m/s 749 mmHg 65%
22:00 +8°C° 0 mm 1 m/s 749 mmHg 66%
23:00 +7°C° 0 mm 1 m/s 749 mmHg 68%

Depois de amanhã, 11 Maio, Terça-feira

Tempo Temperatura Precipitação Vento Pressão Humidade
00:00 +7°C° 0 mm 1 m/s 749 mmHg 68%
01:00 +7°C° 0 mm 1 m/s 749 mmHg 69%
02:00 +6°C° 0 mm 1 m/s 749 mmHg 70%
03:00 +6°C° 0 mm 1 m/s 749 mmHg 71%
04:00 +6°C° 0 mm 1 m/s 749 mmHg 72%
05:00 +5°C° 0 mm 2 m/s 749 mmHg 73%
06:00 +7°C° 0 mm 2 m/s 750 mmHg 67%
07:00 +9°C° 0 mm 3 m/s 750 mmHg 61%
08:00 +11°C° 0 mm 3 m/s 750 mmHg 56%
09:00 +12°C° 0 mm 4 m/s 749 mmHg 52%
10:00 +14°C° 0 mm 4 m/s 749 mmHg 47%
11:00 +15°C° 0 mm 4 m/s 749 mmHg 43%
12:00 +15°C° 0 mm 4 m/s 749 mmHg 43%
13:00 +17°C° 0 mm 4 m/s 748 mmHg 43%
14:00 +17°C° 0 mm 4 m/s 748 mmHg 42%
15:00 +17°C° 0 mm 4 m/s 748 mmHg 47%
16:00 +17°C° 0 mm 3 m/s 748 mmHg 52%
17:00 +17°C° 0 mm 3 m/s 748 mmHg 57%
18:00 +14°C° 0 mm 3 m/s 748 mmHg 64%
19:00 +12°C° 0 mm 3 m/s 748 mmHg 71%
20:00 +11°C° 0 mm 3 m/s 747 mmHg 79%
21:00 +10°C° 0 mm 2 m/s 747 mmHg 81%
22:00 +10°C° 0 mm 2 m/s 747 mmHg 84%
23:00 +9°C° 0 mm 2 m/s 747 mmHg 87%

12 Maio, Quarta-feira

Tempo Temperatura Precipitação Vento Pressão Humidade
00:00 +9°C° 0 mm 2 m/s 747 mmHg 88%
01:00 +8°C° 0 mm 3 m/s 747 mmHg 89%
02:00 +8°C° 0 mm 3 m/s 746 mmHg 90%
03:00 +9°C° 0 mm 3 m/s 746 mmHg 90%
04:00 +9°C° 0 mm 3 m/s 746 mmHg 90%
05:00 +9°C° 0 mm 3 m/s 746 mmHg 89%
06:00 +11°C° 0 mm 4 m/s 745 mmHg 85%
07:00 +13°C° 0 mm 5 m/s 745 mmHg 81%
08:00 +15°C° 0 mm 6 m/s 745 mmHg 78%
09:00 +14°C° 0.2 mm 5 m/s 745 mmHg 82%
10:00 +14°C° 0.2 mm 5 m/s 745 mmHg 86%
11:00 +13°C° 0.2 mm 5 m/s 745 mmHg 90%
12:00 +13°C° 0.2 mm 4 m/s 745 mmHg 91%
13:00 +12°C° 0.2 mm 3 m/s 745 mmHg 92%
14:00 +13°C° 0.2 mm 2 m/s 744 mmHg 92%
15:00 +13°C° 0 mm 2 m/s 744 mmHg 88%
16:00 +13°C° 0 mm 3 m/s 744 mmHg 83%
17:00 +14°C° 0 mm 4 m/s 744 mmHg 78%
18:00 +13°C° 0 mm 3 m/s 744 mmHg 81%
19:00 +14°C° 0 mm 2 m/s 744 mmHg 83%
20:00 +13°C° 0 mm 1 m/s 744 mmHg 86%
21:00 +13°C° 0 mm 2 m/s 743 mmHg 89%
22:00 +12°C° 0 mm 2 m/s 743 mmHg 92%
23:00 +12°C° 0 mm 2 m/s 743 mmHg 94%

13 Maio, Quinta-feira

Tempo Temperatura Precipitação Vento Pressão Humidade
00:00 +12°C° 0 mm 2 m/s 742 mmHg 96%
01:00 +12°C° 0 mm 2 m/s 742 mmHg 97%
02:00 +12°C° 0 mm 2 m/s 742 mmHg 98%
03:00 +12°C° 0 mm 2 m/s 741 mmHg 98%
04:00 +12°C° 0 mm 2 m/s 741 mmHg 98%
05:00 +11°C° 0 mm 3 m/s 741 mmHg 97%
06:00 +12°C° 0 mm 3 m/s 741 mmHg 93%
07:00 +13°C° 0 mm 4 m/s 740 mmHg 88%
08:00 +14°C° 0 mm 4 m/s 740 mmHg 84%
09:00 +15°C° 0.1 mm 5 m/s 740 mmHg 77%
10:00 +16°C° 0.1 mm 5 m/s 740 mmHg 70%
11:00 +17°C° 0.1 mm 6 m/s 740 mmHg 63%
12:00 +17°C° 0.2 mm 6 m/s 740 mmHg 60%
13:00 +19°C° 0.2 mm 6 m/s 740 mmHg 57%
14:00 +19°C° 0.2 mm 6 m/s 740 mmHg 55%
15:00 +19°C° 0.1 mm 5 m/s 739 mmHg 59%
16:00 +18°C° 0.1 mm 4 m/s 739 mmHg 63%
17:00 +18°C° 0.1 mm 3 m/s 739 mmHg 68%
18:00 +16°C° 0 mm 3 m/s 739 mmHg 74%
19:00 +14°C° 0 mm 3 m/s 739 mmHg 81%
20:00 +13°C° 0 mm 2 m/s 739 mmHg 87%
21:00 +13°C° 0 mm 2 m/s 739 mmHg 89%
22:00 +12°C° 0 mm 2 m/s 739 mmHg 91%
23:00 +12°C° 0 mm 2 m/s 739 mmHg 92%

14 Maio, Sexta-feira

Tempo Temperatura Precipitação Vento Pressão Humidade
00:00 +11°C° 0 mm 3 m/s 739 mmHg 93%
01:00 +11°C° 0 mm 3 m/s 739 mmHg 93%
02:00 +10°C° 0 mm 3 m/s 739 mmHg 94%
03:00 +11°C° 0 mm 3 m/s 738 mmHg 91%
04:00 +11°C° 0 mm 4 m/s 738 mmHg 89%
05:00 +12°C° 0 mm 4 m/s 738 mmHg 87%
06:00 +13°C° 0.1 mm 4 m/s 738 mmHg 85%
07:00 +13°C° 0.1 mm 4 m/s 737 mmHg 83%
08:00 +14°C° 0.1 mm 5 m/s 737 mmHg 80%
09:00 +16°C° 0 mm 6 m/s 737 mmHg 74%
10:00 +19°C° 0 mm 6 m/s 736 mmHg 67%
11:00 +21°C° 0 mm 7 m/s 736 mmHg 61%
12:00 +21°C° 0.9 mm 7 m/s 736 mmHg 65%
13:00 +20°C° 0.9 mm 6 m/s 736 mmHg 69%
14:00 +20°C° 0.9 mm 6 m/s 736 mmHg 72%
15:00 +20°C° 0.3 mm 5 m/s 736 mmHg 73%
16:00 +20°C° 0.3 mm 4 m/s 736 mmHg 73%
17:00 +19°C° 0.3 mm 3 m/s 736 mmHg 74%
18:00 +18°C° 0.1 mm 2 m/s 736 mmHg 79%
19:00 +16°C° 0.1 mm 2 m/s 736 mmHg 84%
20:00 +15°C° 0.1 mm 2 m/s 736 mmHg 89%
21:00 +14°C° 0 mm 1 m/s 735 mmHg 89%
22:00 +13°C° 0 mm 1 m/s 735 mmHg 90%
23:00 +12°C° 0 mm 0 m/s 735 mmHg 90%
Mostrar mais

Necessitamos do seu Consentimento

A Meteoprog e os seus Fornecedores de Serviços podem armazenar e aceder a dados pessoais como cookies, identificadores do dispositivo ou outras tecnologias semelhantes existentes no seu dispositivo e processar estes dados para personalizar conteúdos e anúncios, assim como funcionalidades nas redes sociais e análise de tráfego.

  • Armazenar e/ou aceder a informações no seu dispositivo

    Os cookies, identificadores do dispositivo ou outras informações podem ser armazenados ou acedidos no seu dispositivo, para os fins acima indicados.

  • Anúncios e conteúdos personalizados, medição de anúncios e conteúdos, dados sobre o público-alvo e desenvolvimento de produtos

    Os anúncios e os conteúdos podem ser personalizados com base num perfil. Podem ser adicionados dados adicionais para uma maior personalização dos anúncios e dos conteúdos. A eficácia dos anúncios e dos conteúdos pode ser medida. Podem ser obtidas informações sobre o público que visualizou os anúncios e os conteúdos. Estes dados podem ser usados para desenvolver ou melhorar sistemas, softwares ou a experiência do utilizador.

Ao clicar em "Eu concordo”, permitirá o uso de cookies, identificadores do dispositivo e web beacons mencionados ou outras tecnologias semelhantes. As configurações do navegador do seu dispositivo podem ser alteradas.

Para certos fins, podem ser invocados interesses legítimos ao invés de consentimento. Pode ler mais informação sobre este assunto na nossa Política de Privacidade e Cookies.